Location: Saint-Usage
(47.1052°N, 5.2587°E)
Time: 07:51:13
(UTC+02:00)

Nauka - Pass Details

Date: 01 October 2021
Orbit: 418 x 423 km, 51.6° (Epoch: 18 October)

Event Time Altitude Azimuth Distance (km) Brightness Sun altitude
Rises 20:14:25 0° 294° (WNW) 2,366 ? -10.4°
Reaches altitude 10° 20:16:32 10° 298° (WNW) 1,501 ? -10.7°
Maximum altitude 20:19:53 63° 21° (NNE) 471 ? -11.3°
Enters shadow 20:22:05 19° 99° (E) 1,054 ? -11.7°
